RH
42 48 45 66 47 53 60 59 45 52 45 42 44 30 26 22 18 10 5 6 5 4 3 2 2 2 1 1 1 2 2 3 3 3 4 5 6 7 10 13 15 16 13 14 14 15 17
44 42 53 48 56 52 58 78 52 54 48 47 53 39 33 30 16 14 6 5 5 4 3 2 2 2 1 1 1 1 2 2 4 3 4 5 6 8 11 14 17 14 10 11 16 17 18
57 55 56 60 57 58 56 75 70 61 56 52 54 41 37 32 20 13 7 6 5 4 3 2 2 2 1 1 1 1 2 2 2 5 4 5 6 8 12 14 16 16 13 13 16 19 18
74 67 64 73 66 52 71 73 79 70 61 54 47 48 40 35 30 20 8 7 6 5 3 2 2 2 2 1 1 1 2 3 3 5 5 5 6 8 11 13 16 19 15 13 10 18 17
85 67 74 70 69 52 81 85 81 75 61 59 54 56 40 47 38 22 13 7 6 6 4 2 2 2 2 2 1 1 2 2 4 3 7 6 6 8 11 14 15 16 19 14 12 16 18
56 81 74 77 78 60 78 92 89 77 69 65 63 54 51 49 45 22 14 6 8 6 4 3 2 2 2 2 1 1 2 2 3 4 9 6 7 9 11 12 16 20 21 14 13 17 20
80 97 97 90 79 76 74 99 97 81 77 70 64 62 51 54 46 26 23 8 9 6 4 3 2 2 2 2 2 2 2 3 3 7 10 8 8 9 12 12 13 18 22 24 18 18 22
100 90 85 98 100 84 77 98 100 93 76 69 73 61 60 53 48 36 37 23 8 7 6 3 3 2 3 2 2 2 2 3 3 6 8 10 10 11 12 12 13 18 23 24 18 16 20
100 100 100 100 100 93 87 99 100 99 74 72 74 61 70 62 51 46 40 37 14 7 5 5 3 2 3 3 2 2 2 3 4 6 7 12 12 11 13 14 13 13 20 26 24 19 18
99 100 100 100 100 90 90 99 100 97 83 73 80 73 76 58 54 54 52 36 20 10 4 4 4 3 3 4 3 2 3 3 4 4 7 13 13 12 13 14 14 14 15 21 23 23 22
80 100 100 100 100 94 82 100 100 100 84 73 82 76 79 64 69 57 59 38 26 13 6 3 4 3 3 4 4 3 3 3 4 7 10 16 15 13 14 15 16 15 14 16 18 21 25
78 100 100 100 100 100 79 100 100 100 84 91 88 80 83 66 78 59 58 37 29 15 8 5 4 4 4 4 5 4 3 4 6 7 9 11 13 13 12 13 15 16 15 15 18 21 25
75 100 100 100 100 100 82 99 100 100 89 94 92 84 88 68 78 64 56 42 29 18 9 7 5 5 4 4 5 6 4 4 6 10 10 9 13 15 14 14 15 15 17 18 18 23 26
74 100 100 100 100 100 79 100 100 100 94 89 94 87 87 85 78 61 62 45 30 19 13 6 6 5 6 4 5 7 6 5 6 8 19 20 18 21 20 18 17 18 18 22 26 30 34
80 100 100 100 100 100 76 100 100 100 100 92 88 98 88 82 76 64 70 44 31 22 13 8 6 5 5 5 5 6 8 8 6 8 13 21 31 33 35 32 26 24 23 25 28 31 33
87 100 100 100 100 100 86 100 100 100 100 97 91 99 93 89 79 61 69 43 30 25 16 12 7 6 7 6 5 6 8 10 11 10 13 20 26 31 32 34 34 28 24 23 24 26 28
89 100 100 100 100 100 94 100 100 100 100 99 95 96 90 84 87 59 72 39 31 25 17 19 8 8 9 7 6 6 7 10 12 13 15 17 18 29 36 41 39 35 34 32 30 28 26
79 96 100 100 100 94 98 100 100 100 100 96 89 92 87 88 84 59 67 40 34 27 28 23 11 7 7 8 7 6 7 9 12 13 16 18 19 24 33 39 45 47 40 41 42 39 35
86 82 100 100 100 93 100 100 100 100 100 92 90 95 88 86 83 63 62 39 36 30 36 27 16 10 6 7 7 6 7 8 12 14 15 18 21 26 28 34 42 52 49 59 45 41 41
79 95 100 100 100 95 100 100 100 100 100 89 88 98 91 89 80 68 60 37 36 36 37 35 22 9 7 6 7 7 8 8 10 14 16 17 21 28 35 34 39 43 36 36 43 56 52
98 97 98 100 100 100 100 100 100 100 100 88 89 94 98 90 78 68 64 38 38 44 46 47 24 13 7 6 5 6 7 9 9 12 17 18 20 20 27 32 36 43 53 49 47 38 43
100 100 100 100 100 100 100 100 100 100 100 82 92 93 98 98 68 71 60 40 42 44 53 57 37 19 10 7 4 4 5 8 9 10 13 20 20 20 22 27 34 43 43 46 43 43 49
100 100 100 100 100 100 100 100 100 100 100 82 98 100 96 90 71 77 65 42 49 44 47 51 64 40 17 10 6 4 4 6 9 11 12 14 21 28 24 22 21 27 26 37 40 42 48
98 100 100 100 100 100 100 100 100 100 100 86 99 99 99 90 70 71 59 41 50 49 45 56 60 62 25 14 10 6 5 5 7 10 10 12 17 24 28 34 33 26 27 26 29 33 38
69 100 100 100 100 100 100 100 100 100 100 90 100 100 97 90 60 70 52 42 50 48 45 58 55 63 55 18 14 11 6 5 6 8 10 11 13 15 18 26 30 35 42 50 46 44 36
74 100 100 100 100 100 100 100 100 100 100 94 100 100 98 87 76 66 48 40 49 48 50 57 52 59 63 27 19 13 9 6 6 7 10 11 13 15 18 22 28 20 26 36 45 61 64
81 100 100 100 100 100 100 100 100 100 97 96 97 100 100 85 76 69 47 52 47 47 52 48 56 60 71 52 33 18 18 9 8 7 9 12 13 16 18 21 22 31 33 34 37 63 48
78 100 100 100 100 100 100 100 100 100 99 100 100 100 100 89 80 68 51 49 56 45 52 58 60 65 65 70 52 42 26 19 9 7 9 11 15 17 20 23 24 45 41 45 54 55 62
60 95 100 100 100 100 100 100 100 100 100 100 100 100 100 89 75 68 55 54 53 47 50 60 47 56 61 77 67 48 43 23 17 10 8 10 13 15 18 24 27 31 42 49 54 55 56
Wind_Speed
75 69 67 68 76 76 76 75 85 87 89 88 89 90 93 92 92 92 92 96 97 95 81 61 52 46 38 28 27 32 43 60 75 81 85 86 86 88 95 97 96 96 96 96 96 98 104
70 72 68 70 71 76 77 77 81 86 86 88 89 93 94 94 92 94 89 94 98 94 80 63 53 47 38 26 22 29 39 53 68 78 84 85 86 87 92 95 97 102 93 95 92 96 102
73 70 69 71 72 74 76 77 80 84 85 86 88 91 94 94 94 92 90 95 100 94 79 59 52 49 38 26 19 25 38 47 56 71 78 83 85 85 89 97 97 96 94 96 97 95 99
72 78 73 73 71 75 70 75 77 82 84 84 87 90 94 94 95 95 91 95 99 97 84 63 54 50 39 26 18 19 34 45 57 71 79 82 84 83 89 91 94 95 97 97 95 96 98
72 75 76 73 70 73 68 71 75 81 82 81 86 90 92 95 96 95 99 91 98 95 86 67 55 51 41 28 16 11 27 41 54 59 71 77 78 81 84 89 95 95 93 95 92 92 92
77 75 73 68 67 69 65 70 74 78 79 80 84 88 92 94 95 94 96 92 96 98 87 70 58 51 44 30 14 5 19 38 47 53 70 76 76 80 83 83 83 86 91 93 90 88 87
72 71 71 67 66 66 63 66 72 76 77 79 81 87 89 92 93 91 97 95 96 97 87 74 61 49 43 32 14 3 16 34 42 50 65 72 73 72 75 81 83 88 90 90 91 88 87
67 69 67 64 62 64 63 63 68 73 75 76 80 84 87 90 91 90 97 100 97 95 89 76 62 48 43 33 19 6 15 24 38 49 60 63 70 72 75 78 80 83 87 91 92 90 88
67 65 65 63 60 63 62 61 65 70 72 73 78 81 84 89 89 88 95 100 100 99 85 74 61 47 41 36 21 12 10 21 31 46 54 57 66 68 68 71 75 78 83 86 90 89 86
64 64 61 62 57 62 60 59 62 67 69 71 76 79 82 86 85 85 91 97 95 94 90 72 66 54 43 36 24 15 8 17 24 36 45 53 62 64 66 68 73 78 82 85 88 87 85
63 61 59 61 58 59 57 58 61 64 66 67 72 76 79 83 83 81 88 96 95 95 91 76 68 58 45 37 28 16 13 10 20 31 41 49 58 62 64 67 68 72 77 80 82 84 86
58 59 57 59 57 57 55 56 59 61 63 66 70 74 76 81 80 78 84 92 96 95 94 77 68 62 48 36 29 17 13 18 13 23 37 46 53 58 61 63 65 66 72 76 77 80 82
57 57 58 56 55 56 53 53 57 58 60 63 68 71 73 77 77 75 81 89 93 92 89 82 71 64 54 39 29 20 9 20 23 13 12 28 40 49 55 59 59 61 63 67 72 76 79
55 56 57 56 54 55 52 51 55 58 58 59 65 67 70 74 74 71 79 85 89 89 91 82 74 64 58 41 27 19 8 12 24 31 25 17 25 36 45 53 56 57 60 63 67 72 77
54 56 57 55 54 53 48 49 53 56 57 56 62 65 66 69 72 69 76 80 84 88 86 82 77 64 59 48 29 19 11 3 14 21 28 31 29 36 42 48 53 56 58 61 64 69 74
56 56 55 53 54 51 48 47 51 53 55 54 58 62 64 67 69 66 71 77 80 85 83 79 76 67 63 52 35 18 11 3 12 17 25 24 30 33 36 41 46 52 58 60 61 65 68
55 54 55 50 52 50 46 46 48 49 51 51 55 59 61 64 67 63 69 74 75 77 81 79 78 72 63 57 41 21 12 5 4 14 20 25 32 35 37 39 44 48 52 56 60 61 63
52 51 54 50 52 49 46 45 46 47 48 50 54 55 59 62 63 61 66 70 72 76 82 83 79 72 66 57 47 30 12 4 5 12 24 22 30 35 36 35 37 38 45 47 52 57 62
51 49 53 52 53 49 47 44 43 45 45 48 51 52 56 60 60 57 64 68 72 74 80 82 75 76 71 59 47 36 18 8 6 10 18 23 29 32 38 43 43 45 48 47 51 55 58
54 48 50 50 50 49 45 43 41 44 45 48 50 51 54 57 56 53 59 64 70 74 77 79 76 75 72 60 52 37 23 13 8 9 13 20 28 31 35 39 47 47 49 53 54 54 57
52 51 49 52 49 45 42 42 43 44 46 49 48 49 52 53 53 50 58 60 67 74 80 85 77 75 70 64 57 42 22 17 12 11 12 17 22 27 34 38 44 47 48 51 54 60 57
52 49 49 47 46 44 43 43 44 46 46 48 47 48 50 51 50 48 56 61 64 74 80 86 83 68 64 68 62 52 31 16 16 14 15 16 16 22 26 32 38 40 46 49 50 55 52
52 50 47 45 43 42 42 42 44 46 46 45 46 46 49 49 49 46 54 57 62 69 75 82 89 83 66 65 61 52 41 23 12 17 17 16 17 19 23 26 27 31 34 36 38 45 41
52 51 47 45 43 38 40 42 44 44 45 44 45 45 47 47 48 45 50 53 59 66 69 76 83 89 76 65 57 61 47 32 17 13 16 17 19 21 22 22 25 27 26 29 30 32 36
50 52 49 44 41 38 39 42 44 44 44 43 44 43 46 47 42 43 45 51 57 63 67 75 80 86 89 72 57 56 55 41 26 16 15 17 19 21 21 22 23 22 21 23 25 26 31
49 49 48 43 39 39 41 43 43 42 41 40 42 41 43 47 41 42 45 49 55 61 67 73 78 84 90 82 66 48 56 48 34 25 17 19 19 21 23 22 23 22 20 19 21 19 25
48 50 48 43 40 38 39 42 41 40 39 38 39 41 42 46 41 44 46 49 53 58 66 68 77 80 87 88 75 48 57 52 42 28 22 19 21 23 24 26 24 24 24 24 22 25 28
46 46 45 42 40 38 40 41 40 38 37 37 39 40 41 44 41 43 47 48 54 57 64 70 75 75 81 88 76 61 55 56 51 39 26 24 24 25 26 27 28 30 30 28 30 30 31
45 44 43 41 39 38 41 41 38 35 36 37 41 40 40 42 39 43 46 49 53 57 62 69 73 75 77 84 82 74 64 45 50 43 34 30 28 27 26 26 28 30 32 33 34 35 37
Wind_Direction
323 325 324 325 329 328 329 328 330 330 333 335 336 340 342 342 343 346 354 352 353 350 348 344 341 337 326 304 270 246 225 215 216 213 213 215 215 211 212 212 215 216 215 214 215 214 215
318 319 319 322 324 326 328 326 328 329 333 334 335 338 340 343 343 345 354 353 354 351 350 345 343 343 332 313 275 238 224 217 215 213 210 213 213 210 210 210 211 216 215 214 215 214 215
315 315 315 317 321 324 325 325 326 328 331 333 335 337 340 342 342 344 354 356 355 352 354 349 348 350 339 326 291 242 218 213 213 213 211 211 212 209 208 210 210 214 213 215 215 215 216
312 311 313 315 317 321 322 323 325 327 330 333 334 337 340 343 343 344 352 358 358 356 356 354 353 355 350 339 313 253 216 206 206 209 208 209 210 209 209 210 209 211 214 215 215 215 216
306 307 309 311 313 318 320 321 323 326 329 332 334 337 340 343 343 347 345 359 358 356 353 357 357 359 356 350 328 265 215 202 207 208 206 208 210 208 209 210 210 210 212 216 216 217 218
304 302 306 308 311 316 318 320 322 324 327 331 333 337 339 343 345 345 345 359 0 358 355 358 360 2 0 356 343 240 205 198 203 201 207 207 207 207 209 209 212 210 212 216 217 218 218
301 299 302 306 308 312 317 318 320 322 326 330 332 336 340 342 345 344 343 353 1 0 358 360 2 5 6 4 2 155 179 192 198 194 204 207 207 207 208 208 211 211 211 215 215 217 218
292 294 299 302 305 310 315 317 318 320 325 329 331 336 338 342 344 343 346 349 359 1 359 0 2 6 12 14 16 64 159 194 194 193 202 201 205 206 207 208 209 212 213 215 217 217 216
287 287 294 298 300 306 312 314 317 318 324 329 331 334 338 341 344 346 345 350 357 1 1 5 6 8 15 19 25 47 158 177 191 196 198 198 204 206 207 209 211 213 214 216 220 219 219
282 282 290 294 296 304 308 311 315 318 322 329 329 333 338 340 343 346 346 348 355 4 3 7 12 12 15 23 28 57 93 162 186 198 196 197 203 205 206 209 210 212 214 216 220 221 219
279 278 285 289 292 302 308 309 313 317 320 327 328 332 338 341 343 347 345 346 350 357 359 2 12 15 13 19 25 50 103 137 174 189 194 198 203 205 207 209 210 213 215 217 220 221 222
275 277 279 283 289 299 305 306 310 315 319 324 328 332 337 340 342 346 346 346 347 356 360 5 10 14 18 17 25 38 107 125 154 190 197 201 205 206 209 211 213 214 216 217 219 222 223
269 272 276 282 287 295 300 304 308 312 317 322 326 331 336 339 343 345 346 344 347 354 360 4 7 11 15 18 22 31 99 134 131 147 192 212 208 210 211 213 216 216 217 221 221 222 224
267 268 274 278 285 292 295 300 305 310 315 320 324 331 334 339 342 346 347 345 347 350 356 5 7 7 9 16 20 26 36 148 149 149 153 182 207 214 216 216 216 217 219 219 221 223 225
261 264 269 274 282 288 292 296 301 307 313 319 323 328 333 337 341 346 347 344 347 349 355 3 5 8 8 8 15 20 27 122 177 161 164 168 186 205 209 211 214 216 220 220 221 223 226
256 259 265 270 278 284 289 294 298 304 310 318 322 326 332 337 341 345 347 346 350 350 356 9 9 3 4 5 3 14 18 42 168 174 170 180 185 194 203 209 213 217 219 221 222 225 228
250 254 261 268 274 279 285 291 296 301 307 317 320 324 329 336 339 344 345 345 351 351 352 3 8 8 357 358 2 358 5 9 221 198 185 186 194 198 200 202 208 214 217 220 222 224 227
245 250 258 265 270 274 281 286 292 298 305 313 317 323 328 335 338 342 344 348 350 354 356 360 7 12 6 356 358 354 343 329 237 218 199 205 199 197 196 203 208 212 216 219 222 224 227
242 247 253 261 267 271 277 283 289 294 303 309 316 322 327 333 337 342 344 348 353 354 359 359 10 8 6 359 356 353 335 316 264 235 219 211 208 204 201 204 206 212 214 216 222 226 228
243 243 250 257 263 267 272 280 286 291 301 305 315 320 328 333 336 339 343 347 355 357 357 359 2 9 11 2 356 354 338 304 274 249 232 219 215 210 209 212 209 211 217 220 221 222 225
235 240 242 253 257 263 271 278 283 292 297 305 313 320 328 330 334 337 341 347 356 0 358 355 1 5 10 9 2 358 343 312 273 251 240 230 227 226 219 216 214 216 217 218 222 228 229
234 237 239 246 252 261 268 272 282 289 294 306 312 320 324 326 334 335 341 348 358 357 0 358 359 13 10 10 7 357 353 329 296 261 244 236 226 226 225 224 225 224 226 230 234 235 234
229 229 235 243 247 257 265 271 277 286 292 305 311 316 323 322 331 334 340 348 358 359 360 0 357 4 8 10 12 0 357 341 304 274 256 248 244 234 229 232 232 232 236 238 238 237 237
227 228 232 238 244 253 261 269 275 284 291 302 306 312 321 322 327 335 339 346 358 358 3 3 358 357 8 10 8 8 359 352 326 290 266 242 238 240 238 239 236 241 237 239 239 239 238
229 227 227 231 240 248 255 263 271 281 289 299 303 311 316 319 326 334 338 347 357 359 4 3 2 358 0 3 8 4 2 355 338 311 278 256 245 246 245 240 243 244 238 236 241 242 242
227 225 225 226 235 242 251 260 268 276 287 298 299 307 313 317 324 328 335 349 356 360 4 7 5 359 352 1 6 3 5 359 344 329 301 277 262 256 252 248 249 250 249 243 242 248 251
223 221 220 223 229 238 249 256 266 274 283 293 298 304 311 315 320 331 336 350 355 359 2 7 3 3 357 358 2 2 1 360 348 327 310 283 273 265 262 260 259 262 259 258 260 257 259
220 221 222 222 226 237 244 253 263 270 282 288 295 302 307 311 317 326 336 345 353 358 360 1 4 5 4 360 358 358 358 352 353 334 310 286 270 263 261 260 260 256 261 258 259 259 259
220 221 222 222 226 230 239 249 258 267 277 285 290 300 303 306 313 327 336 343 350 355 359 359 3 6 2 360 357 350 354 352 351 338 319 303 284 271 263 261 258 256 255 255 252 253 255